Location: Unspecified
(0.0000°N, 0.0000°E)
Time: 19:20:42
(UTC+00:00)

X-37B - Visible Passes

Search period start: 25 February 2021 00:00
Search period end: 07 March 2021 00:00
Orbit: 383 x 391 km, 45.0° (Epoch: 10 February)

Date Brightness Start Highest point End Pass type
(mag) Time Alt. Az. Time Alt. Az. Time Alt. Az.
02 Mar 3.3 19:50:07 10° SSW 19:50:42 14° SSW 19:50:42 14° SSW visible
03 Mar 2.6 18:52:54 10° S 18:54:49 15° SE 18:55:44 14° ESE visible
04 Mar 1.0 19:29:50 10° SW 19:32:59 58° NW 19:33:13 56° NNW visible
06 Mar 3.1 19:10:25 10° W 19:12:50 19° NW 19:15:13 10° N visible
